This demonstration page uses our WeatherBlox Daily Observations layout. Learn more.

Left ArrowRight Arrow

34.02893, -84.19858

Hourly Observations for August 30, 2022

Temp ( °F °C ) Dew Point ( °F °C ) Humidity (%) Winds ( mph kmh ) Pressure ( in mb ) Visibility ( mi km ) Precip ( " mm )
12:53 am 00:53 Clear 72 22.2 71 21.7 97 97 Calm 30.00 1016 10 16 0.00 0.00
1:53 am 01:53 Clear 73 22.8 71 21.7 94 94 Calm 29.99 1016 10 16 0.00 0.00
2:53 am 02:53 Mostly Clear 73 22.8 71 21.7 94 94 Calm 29.98 1015 10 16 0.00 0.00
3:53 am 03:53 Mostly Clear 72 22.2 71 21.7 97 97 Calm 29.99 1016 10 16 0.00 0.00
4:41 am 04:41 Mostly Cloudy 72 22.2 70 21.1 93 93 VRB 3 6 30.01 1016 10 16 0.00 0.00
4:53 am 04:53 Cloudy 72 22.2 71 21.7 97 97 VRB 3 6 29.98 1015 10 16 0.00 0.00
5:36 am 05:36 Partly Cloudy 72 22.2 70 21.1 93 93 Calm 30.01 1016 10 16 0.00 0.00
5:53 am 05:53 Mostly Clear 71 21.7 70 21.1 96 96 Calm 29.99 1016 10 16 0.00 0.00
6:48 am 06:48 Mostly Cloudy 72 22 70 21 94 94 Calm 30.02 1016 10 16 0.00 0.00
6:53 am 06:53 Mostly Cloudy 71 21.7 70 21.1 96 96 Calm 29.99 1016 10 16 0.00 0.00
7:21 am 07:21 Cloudy 71 21.7 70 21.1 96 96 Calm 30.02 1017 10 16 0.00 0.00
7:53 am 07:53 Cloudy 72 22.2 70 21.1 93 93 Calm 30.02 1017 10 16 0.00 0.00
8:53 am 08:53 Cloudy 73 22.8 70 21.1 90 90 Calm 30.04 1017 10 16 0.00 0.00
9:53 am 09:53 Mostly Cloudy 75 23.9 70 21.1 84 84 Calm 30.03 1017 10 16 0.00 0.00
10:21 am 10:21 Mostly Cloudy 77 25 71 21.7 82 82 Calm 30.05 1017 10 16 0.00 0.00
10:37 am 10:37 Partly Cloudy 78 25.6 71 21.7 79 79 Calm 30.03 1017 10 16 0.00 0.00
10:53 am 10:53 Sunny 79 26.1 71 21.7 77 77 Calm 30.03 1017 10 16 0.00 0.00
11:53 am 11:53 Sunny 82 27.8 72 22.2 72 72 SSW 5 7 30.01 1016 10 16 0.00 0.00
12:53 pm 12:53 Partly Cloudy 86 30 72 22.2 63 63 Calm 29.98 1015 10 16 0.00 0.00
1:53 pm 13:53 Mostly Cloudy 89 31.7 72 22.2 57 57 VRB 3 6 29.93 1014 10 16 0.00 0.00
2:53 pm 14:53 Mostly Sunny 88 31.1 70 21.1 55 55 Calm 29.92 1013 10 16 0.00 0.00
3:53 pm 15:53 Cloudy 88 31.1 69 20.6 54 54 W 8 13 29.91 1013 10 16 0.00 0.00
4:00 pm 16:00 Cloudy with Nearby Thunderstorms 86 30 70 21.1 59 59 W 10 17 29.90 1012 10 16 0.01 0.13
4:53 pm 16:53 Cloudy with Thunderstorms 74 23.3 69 20.6 85 85 undefined N/A 29.94 1014 10 16 0.01 0.13
5:07 pm 17:07 Mostly Cloudy with Light Rain 74 23.3 69 20.6 85 85 undefined N/A 29.95 1014 9 14 0.01 0.25
5:14 pm 17:14 Mostly Cloudy with Nearby Thunderstorms 74 23.3 70 21.1 87 87 undefined N/A 29.95 1014 4 6 0.02 0.51
5:53 pm 17:53 Mostly Cloudy with Nearby Thunderstorms 73 22.8 70 21.1 90 90 undefined N/A 29.95 1014 4 6 0.12 3.05
6:53 pm 18:53 Sunny 74 23.3 72 22.2 94 94 undefined N/A 29.95 1014 10 16 0.02 0.51
7:53 pm 19:53 Sunny 74 23.3 72 22.2 94 94 Calm 29.95 1014 10 16 0.00 0.00
8:01 pm 20:01 Mostly Sunny 74 23.3 72 22.2 94 94 WNW 3 6 29.95 1014 10 16 0.00 0.00
8:53 pm 20:53 Clear 73 22.8 72 22.2 96 96 W 3 6 29.95 1014 10 16 0.00 0.00
9:53 pm 21:53 Clear 73 22.8 72 22.2 96 96 WNW 3 6 29.96 1014 10 16 0.00 0.00
10:53 pm 22:53 Clear 73 22.8 72 22.2 96 96 Calm 29.96 1015 9 14 0.00 0.00
11:53 pm 23:53 Clear 72 22.2 71 21.7 97 97 W 3 6 29.96 1015 9 14 0.00 0.00

Powered by AerisWeather